Location: Albany
(35.0170°S, 117.8920°E)
Time: 21:23:57
(UTC+08:00)

A-11 Canister half - Pass Details

Date: 31 January 2021
Orbit: 1525 x 1684 km, 47.3° (Epoch: 03 March)

Event Time Altitude Azimuth Distance (km) Brightness Sun altitude
Rises 05:23:44 0° 241° (WSW) 4,930 11.3 -1.4°
Reaches altitude 10° 05:27:07 10° 235° (SW) 3,926 10.8 -0.8°
Maximum altitude 05:36:50 50° 161° (SSE) 1,993 10.1 1.1°
Drops below altitude 10° 05:46:11 10° 87° (E) 3,794 12.5 2.9°
Sets 05:49:22 0° 81° (E) 4,754 12.8 3.5°
